Regional Weather Roundup
Issued by NWS

Home | Current Version | Previous Version | Graphics & Text | Print | Product List | Glossary On
Versions: 1 2 3 4 5 6 7 8 9 10 11 12 13 14 15 16 17 18 19 20 21 22 23 24 25 26 27 28 29 30 31 32 33 34 35 36 37 38 39 40 41 42 43 44 45 46 47 48 49 50
000
ASUS43 KTOP 221559
RWRKS

WEATHER ROUNDUP FOR KANSAS
NATIONAL WEATHER SERVICE GOODLAND KS
1100 AM CDT TUE AUG 22 2017

NOTE:  "FAIR" INDICATES FEW OR NO CLOUDS BELOW 12,000 FEET WITH NO
SIGNIFICANT WEATHER AND/OR OBSTRUCTIONS TO VISIBILITY.

KSZ001>006-013>018-027>032-041>047-221700-
NORTHWEST KANSAS

CITY           SKY/WX    TMP DP  RH WIND       PRES   REMARKS
GOODLAND       CLOUDY    65  60  84 E8        30.33R
HAYS           SUNNY     75  62  64 NE23      30.20S
HILL CITY      MOSUNNY   76  62  62 E13G22    30.25S
RUSSELL        MOSUNNY   77  61  57 NE22G30   30.19R
$$

KSZ061>065-074>080-084>089-221700-
SOUTHWEST KANSAS

CITY           SKY/WX    TMP DP  RH WIND       PRES   REMARKS
DODGE CITY     CLOUDY    73  63  70 NE17G25   30.20R
ELKHART          N/A     65  65 100 N15         N/A
GARDEN CITY    PTSUNNY   73  60  63 NE22G32   30.24R
GREAT BEND     SUNNY     76  63  64 NE24G30   30.18R
LIBERAL        CLOUDY    70  65  84 NE17      30.22R
$$

KSZ066>073-081>083-090>101-221700-
SOUTHEAST KANSAS

CITY           SKY/WX    TMP DP  RH WIND       PRES   REMARKS
CHANUTE        PTSUNNY   78  71  79 CALM      30.08R
COFFEYVILLE    CLOUDY    76  69  79 SE12      30.06S
HUTCHINSON     MOSUNNY   75  67  76 NE14G23   30.12R
NEWTON         CLOUDY    72  67  84 N16       30.13R
PARSONS        SUNNY     80  71  74 VRB5      30.07S
WICHITA INTL   PTSUNNY   82  72  71 N18       30.07R
WICHITA JABRA  PTSUNNY   78  73  84 N16G22    30.08R
WICHITA MCCONL PTSUNNY   81  70  69 NE17      30.07R
WINFIELD       SUNNY     85  72  65 VRB6      30.06R
$$

KSZ007>012-019>026-033>040-048>060-102>105-221700-
NORTHEAST KANSAS

CITY           SKY/WX    TMP DP  RH WIND       PRES   REMARKS
CONCORDIA      SUNNY     74  65  73 NE10      30.20R
EMPORIA        CLOUDY    69  67  93 NE12      30.12R
LAWRENCE       MOSUNNY   76  68  76 NW12      30.12R
MANHATTAN      SUNNY     76  66  71 NE13      30.15R
OLATHE IND     MOSUNNY   73  67  81 N13       30.12R
OLATHE EXE     MOSUNNY   73  67  81 N12       30.11R
SALINA         MOSUNNY   79  63  57 NE12      30.16R
TOPEKA BILLARD PTSUNNY   77  68  73 N10       30.13R
TOPEKA FORBES  SUNNY     76  68  76 N13       30.13R
$$




USA.gov is the U.S. government's official web portal to all federal, state and local government web resources and services.